Погода в Шабельском

Россия / Краснодарский край     46°51′07″N   38°28′23″E
темп.,
°C
ветер,
м/с
пор.,
м/с
влажн.,
%
обл.,
%
осадки,
мм/ч
давл.,
гПа
погр.,
м
13 мая, чт
чт1300:00+11в238892 0.0 101378
03:00+11вюв23895 0.0 101368
06:00+11вюв348996 0.0 101397
09:00+16вюв23745 0.0 1013374
12:00+21в23589 0.0 1013740
15:00+22всв3459100 0.0 1013628
18:00+21вюв3572100 0.0 1012168
21:00+17в46844 0.0 101276
14 мая, пт
пт1400:00+16в512901 0.0 1011200
03:00+15вюв512915 0.0 1010217
06:00+15вюв37885 0.0 1011157
09:00+21юв457170 0.0 1011263
12:00+25юв355710 0.0 1011509
15:00+27ю34525 0.0 1010712
18:00+23зсз33748 0.0 1010103
21:00+18зсз33801 0.4 101147
15 мая, сб
сб1500:00+17зсз34790 1.5 101152
03:00+16зсз57851 2.3 1012136
06:00+17зсз227640 0.0 101246
09:00+19сз336790 0.0 1013224
12:00+22зсз226076 0.0 1014396
15:00+22зсз21576 0.0 1013431
18:00+22сз2265100 0.0 101275
21:00+19сз2268100 0.0 101212
16 мая, вс
вс1600:00+18с2269100 0.0 101119
03:00+17св337811 0.0 101043
06:00+18всв3683100 0.0 1010114
09:00+22всв4676100 0.0 1009290
12:00+24всв686199 0.0 1007519
15:00+25всв6862100 0.0 1006709
18:00+24в5106898 0.0 1004330
21:00+20всв4108150 0.0 1004146
17 мая, пн
пн1700:00+21вюв717586 0.0 1003403
03:00+16в5116990 0.2 1003212
06:00+16юв5975100 0.0 1004181
09:00+20ююз6877100 0.0 1006510
12:00+20ююз5676100 0.3 1007551
15:00+20юз5680100 0.5 1008699
18:00+18ююз3485100 0.3 1009338
21:00+16ююз7128799 0.3 1010379